Location: Fontana
(34.0922°N, 117.4351°W)
Time: 18:00:12
(UTC+00:00)

Daily predictions for brighter satellites

Satellite Brightness Start Highest point End
(mag) Time Altitude Azimuth Time Altitude Azimuth Time Altitude Azimuth
Cosmos 2322 4.3 12:05:00 10° S 12:10:30 54° ESE 12:16:01 10° NNE
BlueWalker 3 3.9 12:25:35 23° NE 12:25:35 23° NE 12:28:13 10° E
USA 215 3.9 12:19:56 10° NE 12:26:17 53° SE 12:32:37 10° SSW
ATLAS 2A CENTAUR R/B 3.4 12:30:56 36° SSW 12:30:56 36° SSW 12:33:49 10° SE
Cosmos 2034 Rocket 4.0 12:28:10 10° S 12:34:31 83° E 12:40:51 10° N
Cosmos 1812 Rocket 4.1 12:34:33 31° NNE 12:36:29 56° E 12:40:51 10° SSE
Cosmos 2219 Rocket 2.7 12:39:50 42° NNW 12:39:50 42° NNW 12:43:55 10° N
Gbstr 26 Del rocket 4.4 12:41:38 31° SSW 12:41:38 31° SSW 12:45:23 10° SSE
Cosmos 1782 4.3 12:38:36 15° NNE 12:41:19 34° E 12:44:51 10° SSE
Timation 2 Rocket 4.2 12:40:59 49° W 12:41:21 49° WSW 12:47:46 10° S
H-2A R/B 1.8 12:38:37 10° NNE 12:43:34 87° W 12:48:34 10° SSW
Cosmos 494 Rocket 3.8 12:39:46 10° SSW 12:44:51 85° WNW 12:49:59 10° NNE
COSMOS 2455 2.7 12:44:30 46° NW 12:46:16 71° WSW 12:52:13 10° SSE
OAO 1 Rocket 4.3 12:48:41 55° W 12:49:55 89° N 12:55:16 10° E
Cosmos 1844 4.0 12:50:29 44° WSW 12:50:29 44° WSW 12:55:33 10° S
Cosmos 2056 Rocket 3.4 12:51:47 40° NW 12:53:40 70° WSW 12:58:53 10° S
ERS-1 4.3 12:52:13 10° N 12:57:08 68° WNW 13:02:02 10° SSW
Meteor 2-2 Rocket 4.3 12:54:06 10° N 13:00:09 83° W 13:06:09 10° S
CZ-2D R/B 3.1 12:58:18 10° N 13:02:12 73° WNW 13:06:07 10° SSW
SKYMED 2 3.9 12:58:20 10° SSE 13:02:37 65° ENE 13:06:55 10° N
SL-08 R/B 4.1 12:59:16 10° SSE 13:03:49 50° ENE 13:08:19 10° N
Cosmos-2242 3.2 13:07:14 42° W 13:07:14 42° W 13:11:11 10° SSW
NOSS 0 Rocket 4.1 13:03:07 10° SSW 13:09:19 76° ESE 13:15:34 10° NNE
OAO 3 Rocket 3.2 13:07:07 32° WSW 13:09:22 78° SSE 13:14:17 10° E
Cosmos 2195 Rocket 4.5 13:03:18 10° N 13:09:28 84° E 13:15:34 10° S
SJ-6F 4.4 13:08:55 10° NNE 13:13:02 81° E 13:17:07 10° S
ARIANE 5 R/B 2.9 13:08:17 10° N 13:13:10 42° WNW 13:18:03 10° SW
USA 229 DEB 4.1 13:12:24 28° W 13:14:29 34° NW 13:20:26 10° NNE
USA 229 4.0 13:12:22 28° W 13:14:32 35° NW 13:20:30 10° NNE
Cosmos 1544 4.0 13:12:35 10° SSE 13:15:36 41° E 13:18:38 10° NNE
FengYun 1-2 T 4.1 13:11:15 10° N 13:16:51 80° WNW 13:22:21 10° SSW
Cosmos 2221 3.3 13:13:29 10° N 13:17:38 51° E 13:21:46 10° SSE
Sakura Rocket 4.3 13:15:59 14° SW 13:19:28 34° S 13:23:03 10° ESE
Cosmos 1092 Rocket 4.0 13:13:20 10° N 13:19:35 87° E 13:25:52 10° S
Nadezhda 4 Rocket 4.2 13:13:56 10° NNW 13:19:45 46° W 13:25:36 10° SSW
Cosmos 1980 4.1 13:14:46 10° S 13:20:21 67° ESE 13:25:58 10° NNE
CZ-2D R/B 4.3 13:16:52 10° NNE 13:20:23 44° E 13:23:53 10° S
SJ-12 3.8 13:16:29 10° N 13:20:29 66° WNW 13:24:29 10° SSW
COSMOS 2428 2.9 13:15:46 10° SW 13:21:11 46° WNW 13:26:40 10° N
Atlas Centaur 2 3.5 13:19:34 10° SSW 13:22:10 19° SSE 13:24:56 10° ESE
Cosmos 2333 Rocket 4.1 13:24:44 12° NNW 13:24:44 12° NNW 13:25:25 10° NNW
Cosmos 1844 Rocket 4.1 13:23:05 18° WSW 13:23:05 18° WSW 13:26:26 10° SW
Geosat 4.1 13:18:04 10° NNE 13:22:54 49° WNW 13:27:42 10° SW
Helios 1A 3.5 13:19:24 10° SSW 13:23:11 36° W 13:24:50 25° NW
Cosmos 1634 Rocket 3.9 13:17:09 10° S 13:23:19 80° W 13:29:34 10° N
Lacrosse 5 rocket 2.9 13:24:05 20° NNW 13:24:05 20° NNW 13:27:01 10° N
NOAA 12 4.0 13:19:17 10° N 13:24:33 77° WNW 13:29:46 10° SSW
Cosmos 1953 Rocket 3.5 13:20:53 10° S 13:25:19 84° W 13:29:49 10° N
Cosmos 1812 4.3 13:27:43 17° WSW 13:27:43 17° WSW 13:29:08 10° SW
Cosmos 1048 Rocket 4.4 13:26:27 10° SW 13:31:12 37° WNW 13:35:58 10° N
Cosmos 1500 4.1 13:27:50 10° SSE 13:31:16 47° E 13:34:41 10° NNE
CZ-2C R/B 4.0 13:28:19 10° NNE 13:31:57 43° E 13:35:35 10° S
JB-3 4.3 13:29:13 10° S 13:33:17 80° W 13:37:21 10° NNW
Cosmos 2285 Rocket 3.9 13:28:17 10° SSW 13:34:35 81° WNW 13:41:00 10° NNE
ARGOS 3.1 13:32:33 10° N 13:37:51 61° WNW 13:43:06 10° SSW
ATLAS 5 CENTAUR R/B 3.4 13:35:26 10° S 13:38:15 25° ESE 13:41:06 10° ENE
Spot 4 Rocket 4.0 13:33:25 10° N 13:38:30 63° WNW 13:43:32 10° SSW
Cosmos 1331 Rocket 4.3 13:35:59 10° NNW 13:41:12 70° ENE 13:46:20 10° SSE
ERS-2 1.4 13:40:05 10° N 13:43:00 70° WNW 13:45:54 10° SSW
Cosmos 2278 Rocket 3.1 13:38:42 10° N 13:44:11 50° ENE 13:49:39 10° SE
Cosmos 2237 Rocket 2.1 13:39:49 10° SSW 13:45:28 79° WNW 13:51:09 10° NNE
Cosmos 1933 3.9 13:42:15 10° NNW 13:45:51 34° W 13:49:25 10° SSW
SAR-Lupe-2 3.6 13:42:50 10° NNE 13:46:25 84° ESE 13:49:59 10° SSW
USA 281 3.9 13:41:15 10° N 13:46:44 29° WNW 13:52:11 10° WSW
Cosmos 2279 Rocket 4.0 13:41:07 10° S 13:47:21 79° W 13:53:38 10° N
Cosmos 1862 3.8 13:45:16 10° SW 13:48:45 33° W 13:52:15 10° NNW
Cosmos 2151 2.9 13:45:51 10° SSW 13:49:58 64° W 13:54:10 10° N
COSMO-SKYMED 1 3.3 13:46:50 10° SSW 13:50:42 32° W 13:54:36 10° NW
PSLV R/B 3.8 13:46:50 10° N 13:50:53 43° WNW 13:54:56 10° SW
GENESIS II 4.1 13:53:27 10° SW 13:57:14 60° WNW 14:01:04 10° NNE
Meteor 1-31 Rocket 3.6 13:54:45 10° NNE 13:58:28 54° E 14:02:10 10° S
Chandra Rocket (1) 4.4 13:57:27 10° SW 14:00:45 19° S 14:07:05 10° SE
SJ-7 4.4 13:57:54 10° N 14:01:58 65° WNW 14:05:59 10° SSW
BlueWalker 3 2.8 14:00:10 11° WNW 14:03:28 34° SW 14:06:54 10° SSE
USA 215 3.7 14:03:08 10° NNE 14:09:06 40° NW 14:15:03 10° WSW
SMAP 3.0 14:10:28 10° N 14:15:08 80° WNW 14:19:46 10° SSW
Cosmos 1842 Rocket 3.6 14:11:12 10° NNW 14:15:37 68° W 14:20:02 10° S
CZ-3 R/B 2.5 14:11:22 10° W 14:24:51 53° SSW 14:29:34 10° ESE
